Voltar ao catálogo

STARLINK-37502

AtivoComunicaçõesVLEO
NORAD 69263·PAYLOAD·🇺🇸 United States

Lançado May 29, 2026 de Cape Canaveral Space Force Station

Loading…

Próximas Passagens (próximas 24 horas)

TLE

AtualizadoSource: CelesTrak SupGP

Época: Sep 14, 2026, 22:58 UTC

1 69263C 26117AB  26257.95743056 -.00055482  00000+0 -16389-2 0  2575
2 69263  53.1571 179.8160 0001287  81.6054 283.4244 15.34424661    18

Acompanhe STARLINK-37502 em tempo real com AllMySat

Download on the App Store